EHI
2 5 11 12 12 11 12 14 15 14 14 13 11 11 12 10 6 4 3 2 3 2 1 2 3 2 1 0 0 0 0 0 0 0 0 0 0 0 0 0 0 0 0
3 7 11 13 13 13 13 14 14 12 11 10 9 9 11 9 6 3 1 1 2 2 1 2 3 3 1 0 0 0 0 0 0 0 0 0 0 0 0 0 0 0 0
7 8 11 13 13 13 13 13 12 10 8 7 6 7 8 9 7 3 1 0 1 1 1 1 3 3 2 0 0 0 0 0 0 0 0 0 0 0 0 0 0 0 0
10 9 11 12 12 11 11 12 11 8 7 5 4 5 6 7 6 4 1 1 1 1 1 1 3 3 1 0 0 0 0 0 0 0 0 0 0 0 0 0 0 0 0
9 9 10 11 11 10 11 12 10 8 6 5 4 5 5 5 4 4 3 3 2 1 1 2 2 2 1 0 0 0 0 0 0 0 0 0 0 0 0 0 0 0 0
7 8 9 10 10 11 12 11 10 8 7 5 3 4 5 4 4 4 4 5 4 2 1 1 2 2 1 0 0 0 0 0 0 0 0 0 0 0 0 0 0 0 0
6 7 8 9 10 12 13 12 10 9 8 6 3 3 5 6 4 4 4 4 4 3 1 1 2 2 1 0 0 0 0 0 0 0 0 0 0 0 0 0 0 0 0
5 6 7 8 10 12 13 12 11 9 7 5 3 3 5 6 4 4 4 4 3 2 1 1 2 2 0 0 0 0 0 0 0 0 0 0 0 0 0 0 0 0 0
4 6 6 6 8 9 11 11 9 8 6 3 3 3 4 3 2 3 4 3 3 2 1 1 2 2 1 0 0 0 0 0 0 0 0 0 0 0 0 0 0 0 0
4 6 7 7 6 6 7 6 5 5 4 3 2 2 2 1 1 2 3 3 4 3 2 1 2 3 2 0 0 0 0 0 0 0 0 0 0 0 0 0 0 0 0
4 6 10 10 7 4 4 4 3 2 1 1 1 1 0 0 0 1 2 3 4 3 3 3 3 3 1 0 0 0 0 0 0 0 0 0 0 0 0 0 0 0 0
5 6 9 10 7 5 4 4 4 1 0 0 0 0 0 0 0 0 1 2 3 4 4 4 3 2 0 0 0 0 0 0 0 0 0 0 1 1 0 0 0 0 0
5 5 6 6 6 4 4 4 4 1 0 0 0 0 0 0 0 0 0 1 3 4 5 4 2 1 0 0 0 0 0 1 1 1 0 0 1 1 0 0 0 0 0
2 3 3 3 4 3 3 3 3 1 0 0 0 0 0 0 0 0 0 1 3 5 5 3 1 0 0 0 0 0 0 1 2 1 0 0 1 1 0 0 0 0 0
1 2 1 1 2 3 3 3 3 2 1 0 0 0 0 0 0 0 0 1 2 3 3 2 1 0 0 0 0 0 0 1 1 1 0 0 0 0 0 0 0 0 0
2 2 1 0 1 1 2 3 3 2 1 0 0 0 0 0 0 0 0 0 1 1 2 1 0 0 0 0 0 0 0 0 0 0 0 0 0 0 0 0 0 0 0
2 2 1 0 0 0 1 1 2 2 1 0 0 0 0 0 0 0 0 0 0 0 0 0 0 0 0 0 0 0 0 0 0 0 0 0 0 0 0 0 0 0 0
2 1 0 0 0 0 0 0 1 1 0 0 0 0 0 0 0 0 0 0 0 0 0 0 0 0 0 0 0 0 0 0 0 0 0 0 0 0 0 0 0 0 0
1 0 0 0 0 0 0 0 0 0 0 0 0 0 0 0 0 0 0 0 0 0 0 0 0 0 0 0 0 0 0 0 0 0 0 0 0 0 0 0 0 0 0
0 0 0 0 0 0 0 0 0 0 0 0 0 0 0 0 0 0 0 0 0 0 0 0 0 0 0 0 0 0 0 0 0 0 0 0 0 0 0 0 0 0 0
0 0 0 0 0 0 0 0 0 0 0 0 0 0 0 0 0 0 0 0 0 0 0 0 0 0 0 0 0 0 0 0 0 0 0 0 0 0 0 0 0 0 0
0 0 0 0 0 0 0 0 0 0 0 0 0 0 0 0 0 0 0 0 0 0 0 0 0 0 0 0 0 0 0 0 0 0 0 0 0 0 0 0 0 0 0
0 0 0 0 0 0 0 0 0 0 0 0 0 0 0 0 0 0 0 0 0 0 0 0 0 0 0 0 0 0 0 0 0 0 0 0 0 0 0 0 0 0 0
0 0 0 0 0 0 0 0 0 0 0 0 0 0 0 0 0 0 0 0 0 0 0 0 0 0 0 0 0 0 0 0 0 0 0 0 0 0 0 0 0 0 0
0 0 0 0 0 0 0 0 0 0 0 0 0 0 0 0 0 0 0 0 0 0 0 0 0 0 0 0 0 0 0 0 0 0 0 0 0 0 0 0 0 0 0
0 0 0 0 0 0 0 0 0 0 0 0 0 0 0 0 0 0 0 0 0 0 0 0 0 0 0 0 0 0 0 0 0 0 0 0 0 0 0 0 0 0 0
Wind_Speed
3 4 7 9 9 9 9 9 10 10 10 10 11 10 11 11 11 11 11 11 11 11 11 11 12 12 12 13 13 13 13 13 14 14 13 13 13 14 14 14 12 8 14
5 5 8 9 9 9 9 9 9 9 10 10 10 10 10 10 10 10 11 11 11 11 11 11 12 12 12 13 13 13 13 14 14 13 12 10 11 13 13 12 11 8 13
6 6 8 9 9 9 9 9 9 9 9 9 10 10 10 10 10 10 10 10 10 10 11 11 12 12 12 12 12 13 13 13 13 12 10 5 7 12 13 12 12 12 13
6 6 7 9 9 9 9 9 8 8 9 9 9 9 9 9 10 10 10 10 10 10 10 10 11 11 11 11 12 13 12 12 12 11 6 4 4 11 12 12 12 12 13
5 4 6 9 10 10 9 8 8 8 8 8 8 9 9 9 9 9 10 9 9 10 10 10 11 11 11 11 12 12 12 12 11 8 5 4 4 10 11 12 12 12 12
4 3 5 8 10 10 9 9 8 8 8 8 8 8 8 9 9 9 9 9 9 10 10 10 11 10 10 11 11 11 11 11 8 5 4 3 3 9 11 11 11 12 12
4 3 4 8 9 9 9 8 8 8 8 8 8 9 8 9 9 9 9 9 10 10 10 10 10 10 10 11 11 11 11 11 6 5 4 3 5 10 10 10 10 11 11
5 4 4 7 8 9 9 8 8 7 7 8 8 8 8 9 8 9 9 9 10 9 10 10 10 10 10 11 11 11 10 9 7 5 4 3 7 9 9 10 9 9 10
4 4 3 4 5 7 8 7 7 7 7 7 8 8 8 8 8 8 8 9 10 10 10 10 10 10 10 11 10 10 10 9 5 3 4 3 7 8 8 9 9 9 9
3 3 3 3 4 4 5 6 6 6 6 6 7 7 7 7 7 7 7 8 9 10 10 10 10 10 10 10 10 10 10 8 4 3 2 3 7 7 7 8 8 8 8
3 2 3 3 3 4 4 5 5 5 5 5 5 6 6 3 3 3 5 7 9 10 10 10 10 11 10 9 10 10 7 3 3 2 2 5 7 7 7 7 7 7 7
5 4 4 4 4 4 3 3 3 3 3 3 3 4 3 3 2 3 5 7 8 9 10 10 10 10 8 4 6 7 3 4 3 2 2 5 6 7 7 7 7 7 7
6 5 4 5 4 4 3 3 2 2 2 3 4 4 3 3 2 2 2 3 4 6 5 6 6 4 4 4 3 3 3 3 2 2 2 5 6 6 7 6 6 6 6
6 6 5 5 5 4 4 4 3 3 3 3 3 4 3 2 2 2 2 2 2 2 4 3 3 4 5 5 4 4 4 3 2 2 2 5 5 5 6 6 6 5 5
7 7 6 6 6 5 4 4 4 4 3 4 3 3 4 3 3 2 2 2 3 3 3 4 4 5 5 5 4 5 4 3 3 3 2 6 6 6 6 6 6 5 5
8 7 6 6 6 6 5 4 4 4 4 4 3 4 4 3 3 3 3 3 3 3 3 4 5 5 4 4 4 4 4 4 3 3 3 4 7 7 6 6 6 6 5
8 7 7 7 6 7 6 5 4 4 4 4 4 4 5 4 4 3 3 3 3 3 5 4 5 4 4 4 5 4 4 4 4 3 3 3 4 7 7 6 6 6 5
7 7 7 6 7 7 6 5 4 3 4 4 4 4 5 5 5 4 3 3 3 3 4 5 4 4 4 4 4 3 3 3 4 3 3 3 3 3 6 8 7 6 5
8 8 7 7 7 6 5 5 4 4 3 3 3 3 4 5 5 4 3 3 4 3 3 5 4 4 4 4 4 4 3 3 3 4 4 4 3 3 3 5 8 7 6
7 7 7 7 6 6 4 4 3 3 3 3 3 4 5 4 5 4 4 5 4 4 3 4 5 4 4 4 5 4 4 3 3 3 3 3 3 4 3 4 3 5 7
6 7 7 7 7 6 4 4 4 4 3 3 3 5 5 5 6 5 4 5 5 4 4 6 6 6 4 3 4 4 3 3 3 3 2 3 3 3 3 3 2 2 3
8 8 7 8 8 7 5 4 3 3 3 3 3 4 5 6 6 5 5 5 5 4 5 6 6 4 3 2 3 4 2 2 2 2 2 2 2 2 3 3 2 2 2
7 8 8 8 8 7 6 4 3 2 2 2 3 3 4 6 6 6 6 6 6 5 5 5 6 6 5 2 1 3 4 2 0 2 2 2 2 2 2 2 2 2 2
7 7 8 8 7 7 8 7 7 5 5 4 4 4 5 6 6 7 7 6 6 5 6 5 4 4 6 4 1 2 2 3 3 0 1 1 2 2 2 2 2 2 2
7 7 6 7 7 7 7 8 8 5 3 3 4 6 5 5 6 6 7 6 6 5 5 6 5 4 3 4 3 2 2 2 2 2 1 1 1 1 1 1 1 1 1
5 6 6 7 6 7 7 7 8 7 6 6 6 6 5 4 4 6 6 6 6 5 5 6 5 5 3 4 3 2 3 2 2 2 2 1 1 1 2 1 1 1 1
Wind_Direction
183 184 169 152 146 138 133 129 124 122 120 118 115 114 116 118 118 117 117 117 116 114 113 112 110 109 106 102 99 98 98 95 91 88 86 87 87 88 86 83 81 76 81
161 169 163 154 148 141 137 131 126 126 125 124 122 119 117 120 121 120 119 119 117 116 113 111 111 110 107 104 102 101 100 97 94 88 82 82 87 90 89 86 86 86 85
148 160 157 153 149 145 138 135 132 130 132 131 128 126 122 121 122 121 120 118 118 117 113 111 109 108 105 104 103 104 102 101 98 90 82 75 88 93 93 88 85 88 88
148 153 154 153 151 147 142 137 137 138 136 136 135 132 129 125 124 123 121 120 120 118 115 112 110 106 105 104 105 106 105 104 100 93 79 73 83 97 95 92 87 88 89
141 148 155 153 153 150 147 143 140 140 141 140 140 136 134 132 127 126 123 119 119 118 116 114 111 107 106 108 107 107 106 104 100 90 80 75 79 97 96 93 90 90 90
135 142 157 155 156 153 151 150 147 145 143 142 141 142 139 136 131 128 127 120 116 117 117 116 112 109 108 108 109 108 107 103 96 86 80 75 81 99 99 96 94 93 93
140 143 156 160 160 155 153 154 153 151 147 146 146 146 145 141 137 133 130 125 120 120 119 118 115 113 111 110 109 108 106 104 96 88 83 81 91 100 101 101 98 96 95
146 143 155 161 159 159 157 156 154 154 151 152 149 147 147 142 138 135 131 130 126 123 119 118 118 116 114 112 109 106 105 103 102 95 87 86 99 100 99 101 101 99 99
139 140 147 153 155 156 158 158 155 152 149 150 149 144 135 134 135 137 135 133 131 128 121 117 115 115 113 111 109 104 101 96 95 93 93 87 98 99 98 100 102 100 100
136 144 147 141 147 152 155 156 153 150 148 143 138 130 128 126 125 129 135 130 131 128 124 120 115 111 111 109 107 103 98 91 88 87 84 93 101 102 99 98 102 103 100
160 164 158 148 151 152 152 151 147 143 138 132 127 122 116 111 116 117 124 126 128 127 124 120 115 109 101 99 101 99 94 88 92 81 78 96 106 105 100 99 99 101 102
186 187 172 164 161 157 156 138 132 130 128 125 126 126 117 113 114 116 108 115 121 120 119 116 111 105 96 89 89 91 90 91 87 76 78 99 107 108 105 99 97 99 98
188 187 184 176 165 162 157 148 139 134 131 129 132 132 124 112 108 103 107 111 117 113 112 110 105 99 97 96 90 85 94 95 82 65 64 94 102 105 106 102 100 98 97
188 195 189 180 169 165 162 156 153 148 148 148 147 146 138 131 126 127 130 128 124 124 118 112 109 104 99 96 96 92 87 96 89 73 63 80 98 109 107 107 104 104 103
196 196 191 184 177 167 161 164 158 157 161 159 155 156 150 147 147 140 134 130 131 127 126 122 115 110 105 99 98 97 89 89 89 81 62 69 79 90 101 104 101 105 105
199 197 190 189 182 170 168 169 165 163 161 159 162 163 156 153 148 146 145 137 136 140 134 128 124 118 112 106 96 92 91 84 80 81 68 60 63 67 80 94 95 91 91
200 194 190 189 180 174 171 169 164 166 163 165 168 165 159 156 148 150 145 148 140 141 133 121 113 110 107 100 92 89 87 79 80 80 73 61 53 50 58 74 82 79 75
194 192 190 184 176 174 170 165 162 164 163 165 167 168 165 162 151 148 146 150 141 133 135 130 128 118 108 101 90 80 80 80 73 78 74 66 57 47 45 53 60 64 66
193 191 188 180 174 171 164 156 157 153 161 166 163 167 167 163 157 155 153 145 140 130 134 132 125 125 116 103 93 76 65 68 65 72 74 67 60 54 45 43 46 46 50
186 188 185 176 170 160 152 141 143 148 160 166 167 170 167 161 158 156 149 145 140 132 131 130 123 110 114 115 100 79 62 56 58 61 65 64 57 50 46 42 37 34 38
175 178 183 173 169 161 162 164 163 173 173 175 177 172 169 160 154 155 153 146 141 137 143 135 124 114 104 113 100 79 49 52 55 49 52 60 52 46 46 41 35 33 22
182 180 183 181 176 175 175 171 157 155 170 174 168 168 167 161 155 155 153 150 141 133 136 133 129 126 118 107 116 116 83 19 14 30 40 61 50 41 40 32 30 29 22
186 186 188 188 181 177 166 144 123 115 119 147 168 171 169 161 157 153 153 150 144 144 151 147 141 138 139 116 104 133 144 180 262 356 17 41 45 40 20 17 23 13 14
190 186 186 183 181 176 167 163 162 171 180 185 173 166 158 155 155 154 152 153 149 148 154 153 144 140 142 145 112 72 112 138 144 160 330 10 26 17 359 7 4 3 14
180 177 180 173 174 172 171 172 173 172 169 151 152 153 153 152 153 155 150 155 152 151 156 152 146 137 139 145 142 129 95 79 101 145 205 302 346 329 323 329 330 338 3
170 169 170 167 168 168 168 173 177 168 155 153 161 159 156 150 152 154 150 154 152 153 159 157 149 144 141 133 133 133 139 141 154 147 167 198 262 288 306 310 295 296 321